Regional Weather Roundup
Issued by NWS Burlington, VT

Home | Current Version | Previous Version | Text Only | Print | Product List | Glossary On
Versions: 1 2 3 4 5 6 7 8 9 10 11 12 13 14 15 16 17 18 19 20 21 22 23 24 25 26 27 28 29 30 31 32 33 34 35 36 37 38 39 40 41 42 43 44 45 46 47 48 49 50
000
ASUS41 KBTV 231510
RWRBTV
VERMONT REGIONAL WEATHER ROUNDUP
NATIONAL WEATHER SERVICE BURLINGTON VT
1100 AM EDT SAT JUL 23 2016

NOTE: "FAIR" INDICATES FEW OR NO CLOUDS BELOW 12,000 FEET WITH NO
SIGNIFICANT WEATHER AND/OR OBSTRUCTIONS TO VISIBILITY.

* THESE REPORTS ARE NOT UNDER NWS QUALITY CONTROL AND/OR DO NOT
  REPORT WEATHER SUCH AS PRECIPITATION AND FOG.

VTZ001>019-231600-
_____VERMONT_____


CITY           SKY/WX    TMP DP  RH WIND       PRES   REMARKS
BURLINGTON     FAIR      80  63  55 CALM      29.78S
MONTPELIER     FAIR      74  64  71 W3        29.84S
MORRISVILLE    FAIR      77  66  68 VRB3      29.80F
ST. JOHNSBURY*   N/A     75  64  68 MISG      29.77F
LYNDONVILLE*   FAIR      74  65  73 W5        29.82F
MIDDLEBURY*    FAIR      80  62  53 S5        29.80R
RUTLAND*       PTSUNNY   79  63  57 VRB6      29.81F
SPRINGFIELD    FAIR      82  60  47 NW8       29.79S
HIGHGATE*      FAIR      77  67  70 NW3       29.77S
NEWPORT*       FAIR      75  64  69 W3        29.80S
BENNINGTON     FAIR      81  63  54 VRB5      29.84S

_____LAKE CHAMPLAIN_____


CITY           SKY/WX    TMP DP  RH WIND       PRES   REMARKS
BURTON ISLAND*   N/A     75  64  69 SW5         N/A
COLCHESTER RF*   N/A     72  68  88 S6          N/A
DIAMOND ISL*     N/A     75  64  69 S8          N/A

$$

NYZ007-026>031-035-052-083-087-231600-
_____NORTHERN NEW YORK_____


CITY           SKY/WX    TMP DP  RH WIND       PRES   REMARKS
PLATTSBURGH    MOSUNNY   80  68  66 VRB5      29.76S
SARANAC LAKE   MOSUNNY   74  59  59 VRB5      29.85S
MASSENA        MOSUNNY   78  66  66 W13       29.81S
OGDENSBURG*    SUNNY     81  64  57 NW8       29.82S
POTSDAM*       MOSUNNY   79  68  69 NW7       29.83R
WATERTOWN      SUNNY     80  63  55 W13       29.86R
FT DRUM        SUNNY     82  60  47 W10       29.85R
ALBANY         MOSUNNY   85  61  44 NW16      29.82S
GLENS FALLS    SUNNY     85  61  44 VRB6      29.80F

$$
NHZ002-005-011-231600-
_____NEW HAMPSHIRE_____


CITY           SKY/WX    TMP DP  RH WIND       PRES   REMARKS
LEBANON        SUNNY     80  63  55 S3        29.78F
KEENE          SUNNY     85  61  44 NW7       29.79F
MT WASHINGTON  FOG       50  50 100 W35G40      N/A  VSB 0
PLYMOUTH       FAIR      80  63  56 W5        29.78R
WHITEFIELD     PTSUNNY   75  64  68 CALM      29.80F

$$

_____REGIONAL QUEBEC LOCATIONS_____


CITY           SKY/WX    TMP DP  RH WIND       PRES   REMARKS
MONTREAL       MOSUNNY   79  68  69 SW14      29.76S
QUEBEC CITY    PTSUNNY   75  63  64 W10       29.72R
SHERBROOKE     MOSUNNY   77  64  65 NW8       29.77S

_____REGIONAL ONTARIO LOCATIONS_____


CITY           SKY/WX    TMP DP  RH WIND       PRES   REMARKS
OTTAWA         MOSUNNY   79  64  61 W15       29.82S

______KEY______
VSB  - VISIBILITY IN MILES
WCI  - WIND CHILL INDEX
HX   - HEAT INDEX
$$
NNNN




USA.gov is the U.S. government's official web portal to all federal, state and local government web resources and services.